Location: Dumpton Point
(51.3500°N, 1.4433°E)
Time: 03:41:16
(UTC+00:00)

Altair - Pass Details

Date: 07 October 2022
Orbit: 1501 x 1682 km, 47.2° (Epoch: 04 December)

Event Time Altitude Azimuth Distance (km) Brightness Sun altitude
Rises 11:06:47 0° 287° (WNW) 4,906 9.9 32.6°
Reaches altitude 10° 11:10:56 10° 273° (W) 3,932 9.6 32.7°
Maximum altitude 11:17:45 21° 230° (SW) 3,149 9.8 32.8°
Drops below altitude 10° 11:24:36 10° 186° (S) 3,933 11.1 32.9°
Sets 11:28:47 0° 172° (S) 4,907 11.2 33.0°
